W2CS Weather Reports


Display with metric or nautical units.
time (UTC)temp
F
wind
direction
speed
MPH
gust
MPH
rain 1hr
in
rain 24hr
in
rain mn
in
humidity
%
barometer
mb
20260505041601 46 0 0.0 1.0 0.00 0.00 0.00 92 1012.8
20260505041039 46 0 0.0 1.0 0.00 0.00 0.00 92 1012.7
20260505040540 46 0 0.0 0.0 0.00 0.00 0.00 91 1012.7
20260505040059 46 0 0.0 2.0 0.00 0.00 0.00 91 1012.7
20260505035540 46 0 0.0 2.0 0.00 0.00 0.00 91 1012.8
20260505035039 46 0 0.0 2.0 0.00 0.00 0.00 91 1012.8
20260505034548 46 0 0.0 1.0 0.00 0.00 0.00 91 1012.8
20260505034039 46 0 0.0 1.0 0.00 0.00 0.00 91 1012.8
20260505033539 46 0 0.0 1.0 0.00 0.00 0.00 91 1012.8
20260505033050 46 0 0.0 1.0 0.00 0.00 0.00 91 1012.8
20260505032539 46 0 0.0 0.0 0.00 0.00 0.00 90 1012.8
20260505032038 46 0 0.0 0.0 0.00 0.00 0.00 90 1012.9
20260505031550 46 0 0.0 0.0 0.00 0.00 0.00 90 1013.0
20260505031038 47 0 0.0 0.0 0.00 0.00 0.00 90 1013.0
20260505030539 47 0 0.0 0.0 0.00 0.00 0.00 90 1013.1
20260505030052 47 0 0.0 0.0 0.00 0.00 0.00 89 1013.0
20260505025536 47 0 0.0 2.0 0.00 0.00 0.00 89 1012.9
20260505025038 47 0 0.0 2.0 0.00 0.00 0.00 89 1013.0
20260505024550 47 0 0.0 1.0 0.00 0.00 0.00 89 1012.9
20260505024039 48 0 0.0 1.0 0.00 0.00 0.00 88 1012.9
20260505023541 48 0 0.0 2.0 0.00 0.00 0.00 88 1013.0
20260505023054 48 0 0.0 2.0 0.00 0.00 0.00 88 1012.9
20260505022539 49 0 0.0 0.0 0.00 0.00 0.00 88 1013.0
20260505022039 49 0 0.0 0.0 0.00 0.00 0.00 87 1013.0
20260505021550 49 0 0.0 1.0 0.00 0.00 0.00 87 1013.0
20260505021038 49 0 0.0 2.0 0.00 0.00 0.00 87 1013.0
20260505020539 50 0 0.0 3.0 0.00 0.00 0.00 87 1013.0
20260505020050 50 56 0.0 3.0 0.00 0.00 0.00 87 1013.0
20260505015539 50 56 0.0 3.0 0.00 0.00 0.00 87 1013.0
20260505015039 50 17 0.0 2.0 0.00 0.00 0.00 87 1012.9
20260505014604 50 20 1.0 3.0 0.00 0.00 0.00 87 1012.9
20260505014042 50 322 1.0 4.0 0.00 0.00 0.00 87 1012.8
20260505013538 50 343 1.0 4.0 0.00 0.00 0.00 87 1012.7
20260505013051 50 348 1.0 3.0 0.00 0.00 0.00 87 1012.7
20260505012539 50 333 1.0 3.0 0.00 0.00 0.00 86 1012.5
20260505012039 50 354 1.0 3.0 0.00 0.00 0.00 86 1012.4
20260505011549 50 295 1.0 3.0 0.00 0.00 0.00 86 1012.4
20260505011039 50 220 1.0 4.0 0.00 0.00 0.00 86 1012.3
20260505010539 50 8 1.0 4.0 0.00 0.00 0.00 86 1012.2
20260505010049 50 344 1.0 4.0 0.00 0.00 0.00 85 1012.1
20260505005539 51 110 1.0 3.0 0.00 0.00 0.00 85 1012.1
20260505005039 51 181 1.0 3.0 0.00 0.00 0.00 85 1011.9
20260505004550 51 359 1.0 4.0 0.00 0.00 0.00 85 1011.9
20260505004038 51 360 1.0 4.0 0.00 0.00 0.00 84 1011.8
20260505003535 51 359 1.0 5.0 0.00 0.00 0.00 84 1011.6
20260505003054 51 10 1.0 5.0 0.00 0.00 0.00 84 1011.5
20260505002542 51 29 1.0 5.0 0.00 0.00 0.00 84 1011.5
20260505002039 51 6 1.0 3.0 0.00 0.00 0.00 83 1011.3
20260505001602 51 313 1.0 3.0 0.00 0.00 0.00 83 1011.4
20260505001040 51 0 1.0 3.0 0.00 0.00 0.00 83 1011.3
20260505000539 51 70 1.0 3.0 0.00 0.00 0.00 82 1011.4
20260505000113 51 356 1.0 4.0 0.00 0.00 0.00 82 1011.1
20260504235539 52 355 1.0 4.0 0.00 0.00 0.00 81 1011.2
20260504235040 52 337 1.0 4.0 0.00 0.00 0.00 81 1011.1
20260504234605 52 12 1.0 4.0 0.00 0.00 0.00 80 1011.2
20260504234039 52 179 1.0 3.0 0.00 0.00 0.00 80 1011.1
20260504233536 52 338 1.0 3.0 0.00 0.00 0.00 80 1011.1
20260504233050 52 335 1.0 4.0 0.00 0.00 0.00 80 1011.0
20260504232536 53 6 1.0 4.0 0.00 0.00 0.00 79 1010.9
20260504232038 53 8 1.0 5.0 0.00 0.00 0.00 79 1010.9
20260504231553 53 16 1.0 5.0 0.00 0.00 0.00 80 1010.8
20260504231038 53 342 1.0 4.0 0.00 0.00 0.00 79 1010.9
20260504230539 53 66 1.0 4.0 0.00 0.00 0.00 79 1010.9
20260504230053 53 39 1.0 5.0 0.00 0.00 0.00 78 1010.9
20260504225538 53 30 1.0 5.0 0.00 0.00 0.00 78 1010.9
20260504225040 54 3 2.0 5.0 0.00 0.00 0.00 77 1010.8
20260504224605 54 8 2.0 5.0 0.00 0.00 0.00 77 1010.9
20260504224039 54 1 1.0 6.0 0.00 0.00 0.00 76 1010.8
20260504223541 55 188 2.0 6.0 0.00 0.00 0.00 75 1010.8
20260504223047 55 301 1.0 4.0 0.00 0.00 0.00 75 1010.9
20260504222539 55 345 1.0 4.0 0.00 0.00 0.00 74 1010.8
20260504222038 55 4 2.0 4.0 0.00 0.00 0.00 73 1010.8
20260504221547 56 32 1.0 4.0 0.00 0.00 0.00 73 1010.7
20260504221039 56 345 1.0 5.0 0.00 0.00 0.00 72 1010.8
20260504220542 57 333 1.0 5.0 0.00 0.00 0.00 71 1010.7
20260504220045 57 224 1.0 5.0 0.00 0.00 0.00 70 1010.6
20260504215539 57 154 1.0 4.0 0.00 0.00 0.00 70 1010.7
20260504215038 57 24 2.0 6.0 0.00 0.00 0.00 70 1010.7
20260504214548 58 4 1.0 6.0 0.00 0.00 0.00 68 1010.8
20260504214038 58 12 1.0 6.0 0.00 0.00 0.00 67 1010.9
20260504213539 58 11 1.0 4.0 0.00 0.00 0.00 69 1010.8
20260504213109 58 13 1.0 6.0 0.00 0.00 0.00 69 1010.8
20260504212539 58 10 2.0 8.0 0.00 0.00 0.00 69 1010.8
20260504212042 58 285 1.0 8.0 0.00 0.00 0.00 68 1010.8
20260504211549 59 333 1.0 6.0 0.00 0.00 0.00 68 1010.9
20260504211039 59 9 2.0 4.0 0.00 0.00 0.00 66 1010.9
20260504210541 59 357 2.0 4.0 0.00 0.00 0.00 66 1010.8
20260504210051 59 14 2.0 6.0 0.00 0.00 0.00 66 1010.9
20260504205539 59 50 2.0 6.0 0.00 0.00 0.00 66 1010.8
20260504205041 60 16 1.0 6.0 0.00 0.00 0.00 64 1010.7
20260504204553 60 346 1.0 5.0 0.00 0.00 0.00 65 1010.6
20260504204038 60 14 1.0 5.0 0.00 0.00 0.00 65 1010.6
20260504203539 60 7 1.0 5.0 0.00 0.00 0.00 65 1010.4
20260504203117 60 10 2.0 5.0 0.00 0.00 0.00 64 1010.5
20260504202539 60 264 2.0 4.0 0.00 0.00 0.00 64 1010.4
20260504202038 61 337 2.0 9.0 0.00 0.00 0.00 63 1010.4
20260504201552 61 345 2.0 9.0 0.00 0.00 0.00 63 1010.6
20260504201039 61 353 2.0 7.0 0.00 0.00 0.00 63 1010.5
20260504200538 62 345 2.0 7.0 0.00 0.00 0.00 61 1010.6
20260504200051 62 29 1.0 6.0 0.00 0.00 0.00 61 1010.6
20260504195539 63 352 1.0 5.0 0.00 0.00 0.00 62 1010.5
20260504195043 63 12 1.0 6.0 0.00 0.00 0.00 59 1010.5
20260504194559 63 55 1.0 6.0 0.00 0.00 0.00 60 1010.4
20260504194041 63 351 2.0 8.0 0.00 0.00 0.00 57 1010.6
20260504193540 64 29 2.0 8.0 0.00 0.00 0.00 55 1010.7
20260504193052 64 357 2.0 8.0 0.00 0.00 0.00 54 1010.7
20260504192538 64 4 2.0 6.0 0.00 0.00 0.00 55 1010.8
20260504192038 64 1 2.0 8.0 0.00 0.00 0.00 55 1010.6
20260504191547 64 10 2.0 8.0 0.00 0.00 0.00 54 1010.7
20260504191039 64 3 3.0 8.0 0.00 0.00 0.00 56 1010.8
20260504190541 65 337 2.0 7.0 0.00 0.00 0.00 55 1010.9
20260504190105 64 324 1.0 10.0 0.00 0.00 0.00 57 1010.8
20260504185539 64 6 2.0 10.0 0.00 0.00 0.00 57 1010.8
20260504185040 65 347 2.0 10.0 0.00 0.00 0.00 56 1010.8
20260504184559 66 353 2.0 5.0 0.00 0.00 0.00 58 1010.9
20260504184039 65 332 2.0 5.0 0.00 0.00 0.00 57 1011.1
20260504183542 65 16 2.0 5.0 0.00 0.00 0.00 57 1011.0
20260504183048 65 36 2.0 4.0 0.00 0.00 0.00 57 1011.0
20260504182542 65 338 1.0 4.0 0.00 0.00 0.00 59 1011.1
20260504182039 65 14 2.0 4.0 0.00 0.00 0.00 61 1011.0
20260504181549 65 359 2.0 8.0 0.00 0.00 0.00 60 1010.9
20260504181039 65 30 2.0 8.0 0.00 0.00 0.00 57 1010.9
20260504180541 65 8 2.0 8.0 0.00 0.00 0.00 59 1011.0
20260504180051 65 335 2.0 5.0 0.00 0.00 0.00 59 1011.0
20260504175538 66 31 1.0 5.0 0.00 0.00 0.00 59 1010.8
20260504175040 66 32 2.0 5.0 0.00 0.00 0.00 59 1010.8
20260504174601 66 26 1.0 4.0 0.00 0.00 0.00 59 1010.9
20260504174039 66 26 2.0 4.0 0.00 0.00 0.00 61 1010.9
20260504173539 66 14 2.0 4.0 0.00 0.00 0.00 58 1010.9
20260504173056 66 348 2.0 7.0 0.00 0.00 0.00 58 1010.9
20260504172539 65 354 2.0 7.0 0.00 0.00 0.00 59 1011.0
20260504172041 65 345 2.0 5.0 0.00 0.00 0.00 61 1011.0
20260504171551 65 14 2.0 4.0 0.00 0.00 0.00 60 1011.0
20260504171039 65 20 2.0 4.0 0.00 0.00 0.00 64 1011.0
20260504170539 65 359 2.0 4.0 0.00 0.00 0.00 60 1011.1
20260504151038 65 11 1.0 3.0 0.00 0.00 0.00 59 1011.8
20260504150536 65 355 1.0 7.0 0.00 0.00 0.00 57 1011.9
20260504141038 63 103 1.0 4.0 0.00 0.00 0.00 61 1012.1
20260504140536 63 1 1.0 4.0 0.00 0.00 0.00 61 1012.1
20260504140106 63 359 1.0 4.0 0.00 0.00 0.00 60 1012.2
20260504130539 60 0 0.0 4.0 0.00 0.00 0.00 64 1012.3
20260504110539 44 0 0.0 1.0 0.00 0.00 0.00 89 1012.4
20260504110116 43 0 0.0 1.0 0.00 0.00 0.00 90 1012.3
20260504100538 41 0 0.0 0.0 0.00 0.00 0.00 88 1012.2
20260504090117 42 0 0.0 0.0 0.00 0.00 0.00 88 1011.7
20260504081548 41 0 0.0 0.0 0.00 0.00 0.00 88 1011.7
20260504081039 41 0 0.0 0.0 0.00 0.00 0.00 89 1011.7
20260504080541 41 0 0.0 0.0 0.00 0.00 0.00 89 1011.8
20260504050538 38 0 0.0 0.0 0.00 0.00 0.00 89 1011.5
20260504045542 38 0 0.0 0.0 0.00 0.00 0.00 89 1011.4
20260504045038 38 0 0.0 0.0 0.00 0.00 0.00 89 1011.5
20260504044559 38 0 0.0 0.0 0.00 0.00 0.00 88 1011.5
20260504044038 38 0 0.0 0.0 0.00 0.00 0.00 88 1011.4
20260504043539 38 0 0.0 0.0 0.00 0.00 0.00 88 1011.5
20260504043054 37 0 0.0 0.0 0.00 0.00 0.00 88 1011.4
20260504042536 37 0 0.0 0.0 0.00 0.00 0.00 87 1011.6
20260504042035 36 0 0.0 0.0 0.00 0.00 0.00 87 1011.6